Regional Weather Roundup
Issued by NWS Charleston, SC

Current Version | Previous Version | Graphics & Text | Print | Product List | Glossary On
Versions: 1 2 3 4 5 6 7 8 9 10 11 12 13 14 15 16 17 18 19 20 21 22 23 24 25 26 27 28 29 30 31 32 33 34 35 36 37 38 39 40 41 42 43 44 45 46 47 48 49 50
000
ASUS42 KCHS 300811
RWRCHS

REGIONAL WEATHER ROUNDUP
NATIONAL WEATHER SERVICE CHARLESTON SC
300 AM EST FRI JAN 30 2015

NOTE: "FAIR" INDICATES FEW OR NO CLOUDS BELOW 12,000 FEET WITH NO
SIGNIFICANT WEATHER AND/OR OBSTRUCTIONS TO VISIBILITY.

NOT ALL STATIONS ARE QUALITY CONTROLLED BY THE NATIONAL
WEATHER SERVICE. USE DATA WITH CAUTION...ESPECIALLY
DEWPOINT OBSERVATIONS.

SCZ027-030-031-034>040-042>050-300900-
...SOUTHEAST SOUTH CAROLINA...

CITY           SKY/WX    TMP DP  RH WIND       PRES   REMARKS
N CHARLESTON   CLOUDY    53  44  71 SW7       30.08F
WATERFRONT PRK   N/A     52 N/A N/A SW7         N/A
MOUNT PLEASANT PTSUNNY   54  46  76 CALM      30.08F
PINOPOLIS        N/A     54  45  71 SW9       29.96F
MONCKS CORNER  CLOUDY    52  43  71 SW7       30.06F
SUMMERVILLE    CLOUDY    50  45  81 SW3       30.08F
BEAUFORT MCAS  CLOUDY    52  43  71 SW7       30.08F
BEAUFORT ARPT  CLOUDY    52  45  76 SW3       30.08F
HILTON HEAD IS CLOUDY    54  43  66 S8        30.11F
WALTERBORO     CLOUDY    52  41  66 SW7       30.07F
ALLENDALE      CLOUDY    54  39  58 CALM      30.06F

...SOUTHERN MIDLANDS AND PEE DEE...

CITY           SKY/WX    TMP DP  RH WIND       PRES   REMARKS
GEORGETOWN     NOT AVBL
KINGSTREE      NOT AVBL
ORANGEBURG     CLOUDY    53  35  50 SW14      30.03F
BARNWELL       PTSUNNY   54  36  50 SW5       30.05F
AIKEN          PTSUNNY   50  36  57 SW12G17   30.06F
MANNING        PTSUNNY   52  37  58 SW7       30.05F
COLUMBIA       CLOUDY    52  33  48 W8        30.02F
SUMTER         CLOUDY    50  37  61 SW13      30.00F
FLORENCE       MOCLDY    50  39  66 SW10      30.00F
MYRTLE BEACH   CLOUDY    54  43  66 SW6       30.06F
N MYRTLE BEACH CLOUDY    51  45  79 SW9       30.03F

$$

GAZ063-065-086>088-099>101-113>116-118-119-134>141-150-300900-
...SOUTHEAST GEORGIA...

CITY           SKY/WX    TMP DP  RH WIND       PRES   REMARKS
SAVANNAH ARPT  CLOUDY    52  38  58 SW6       30.10F
HUNTER AAF     CLOUDY    52  39  62 SW6       30.08F
FORT STEWART   CLOUDY    52  37  56 SW6       30.09F
STATESBORO     CLOUDY    54  41  61 W7        30.08F
SYLVANIA       CLOUDY    54  41  61 W3        30.08F
CLAXTON        FAIR      52  39  62 SW3       30.10F

...CSRA...CENTRAL AND FAR SOUTHEAST GEORGIA...

CITY           SKY/WX    TMP DP  RH WIND       PRES   REMARKS
THOMSON        PTCLDY    52  43  70 SW6       30.09F
AUGUSTA-BUSH   CLOUDY    51  36  56 SW9       30.04F
AUGUSTA-DANIEL CLOUDY    53  38  56 VRB7      30.04F
SWAINSBORO     PTSUNNY   55  34  44 SW6       30.09F
VIDALIA        CLOUDY    54  43  66 SW9       30.10F
EASTMAN        FAIR      53  47  80 SW7       30.12F
HAZLEHURST     CLOUDY    55  47  74 SW6       30.10F
ALMA           MOCLDY    51  40  65 SW9       30.13F
WAYCROSS       MOCLDY    53  47  81 SW9       30.14F
JESUP          PTSUNNY   54  43  66 W3        30.12F
BAXLEY         CLOUDY    54  41  62 W6        30.12S
BRUNSWICK      CLOUDY    52  41  66 SW8       30.13F
SAINT SIMONS   MOCLDY    50  41  71 SW9       30.13F

$$

SCZ027-028-034-036>038-045-046-048>050-GAZ119-141-300900-
...LAKE AND SUPPLEMENTAL COASTAL OBSERVATIONS...

STATION/POSITION TIME  TEMP    WIND        PRES    WAVE   SWELL
                       AIR SEA DIR/SP/G            HT/PER HT/PER/DIR
                 (UTC) (F)     (DEG/KT/KT) (MB)    (FT/S) (FT/S/D)
UPR LAKE MARION  NOT AVBL
WINYAH BAY       NOT AVBL
LAKE MURRAY      0700   52     230/  7/  9 1016.3F
ACE BASIN NERRS  NOT AVBL
FORT PULASKI     0700   51 52  200/  5/  8 1020.2F
SAPELO ISLAND    0700   52     230/  9     1021.0S

$$

ANZ835-935-AMZ111-154-330-350-352-354-370-450-454-472-300900-
...C-MAN AND BUOY OBSERVATIONS...

STATION/POSITION TIME  TEMP    WIND        PRES    WAVE   SWELL
                       AIR SEA DIR/SP/G            HT/PER HT/PER/DIR
                 (UTC) (F)     (DEG/KT/KT) (MB)    (FT/S) (FT/S/D)
BUOY 41004       0750   63 68  240/ 21/ 27 1018.2F   5/ 6   2/11
BUOY 41008       0750   54 54  230/ 14/ 16 1019.8F   3/10   2/ 80/10
FOLLY BEACH CMAN 0800   53     230/  8/ 11 1019.0F
CAPERS NEARSHORE 0700   54     240/ 14/ 16   N/A
FRIPP NEARSHORE  0700   53     220/ 14/ 16 1018.8


STATION/POSITION TIME  TEMP    WIND        PRES    WAVE   SWELL
                       AIR SEA DIR/SP/G            HT/PER HT/PER/DIR
                 (UTC) (F)     (DEG/KT/KT) (MB)    (FT/S) (FT/S/D)
5E ST. MARYS GA  0721      56                N/A     3/10   2/ 90/11
FRYING PAN BUOY  0750   62 67  240/ 25/ 31 1017.8F   7/ 6   2/ 60/10
BUOY 41025       0750   60 70  260/ 27/ 35 1015.5F   7/ 6   2/ 50/12
CAPE LOOKOUT NC  0800   54     240/ 12/ 17 1016.3F
BUOY 41002       0750   63 72  240/ 16/ 21 1021.4F   4/10   3/ 70/10
BUOY 41010       0720   67 75  230/ 12/ 16 1021.7F
ST AUGUSTINE FL  0800   50     270/  4/  6 1022.5F


$$


USA.gov is the U.S. government's official web portal to all federal, state and local government web resources and services.